User: anonymous   Login
Location: Unspecified
(0.0000°N, 0.0000°E)
Time: 03:35:06
(UTC+00:00)
Language:

SEEDS - Orbit

View from above orbital plane
View from above orbital plane
View from above satellite
View from above satellite

Ground track
Ground track

The orbit data is extracted from the following two-line orbital elements,

1 32791U 08021J   17173.54847654 +.00000413 +00000-0 +48006-4 0  9995
2 32791 097.5631 201.9582 0014707 131.1023 229.1468 14.90228451495862
Epoch (UTC): 22 June 2017 13:09:48
Eccentricity: 0.0014707
inclination: 97.5631°
perigee height: 587 km
apogee height: 607 km
right ascension of ascending node: 201.9582°
argument of perigee: 131.1023°
revolutions per day: 14.90228451
mean anomaly at epoch: 229.1468°
orbit number at epoch: 49586

The dashed part of the orbit path shows where the satellite is in the earth's shadow,  

DLR